Blue Canyon, CA

11:34 AM PST on November 18, 2019 (GMT -0800)
Blue Canyon-Nyack

Weather History for KBLU - October, 2019

Change the Weather History Date:

Sunday, October 20, 2019

  Actual Average Record
Temperature  
Mean Temperature 50 °F -  
Max Temperature 61 °F 59 °F 79 °F (1988)
Min Temperature 41 °F 43 °F 29 °F (1949)
Degree Days  
Heating Degree Days 14    
Moisture  
Dew Point 34 °F    
Average Humidity 53    
Maximum Humidity 73    
Minimum Humidity 40    
Precipitation  
Precipitation 0.00 in - - ()
Sea Level Pressure  
Sea Level Pressure 30.10 in    
Wind  
Wind Speed 4 mph ()    
Max Wind Speed 7 mph    
Max Gust Speed -    
Visibility 10.0 miles    
Events      
Averages and records for this station are not official NWS values.
T = Trace of Precipitation, MM = Missing Value Source: Averaged Metar Reports

Daily Weather History Graph

Daily Weather History Graph

Search for Another Location

Airport or City:

Astronomy

Oct. 20, 2019 Rise Set
Actual Time 7:17 AM PDT 6:17 PM PDT
Civil Twilight 6:50 AM PDT 6:44 PM PDT
Nautical Twilight 6:19 AM PDT 7:15 PM PDT
Astronomical Twilight 5:48 AM PDT 7:46 PM PDT
Moon 11:32 PM PDT (10/20) 1:48 PM PDT (10/20)
Length of Visible Light 11h 53m
Length of Day
10h 59m
Waning Gibbous, 58% of the Moon is Illuminated
Oct 20
Waning Gibbous
Oct 21
Last Quarter
Oct 27
New
Nov 4
First Quarter
Nov 12
Full

Hourly Weather History & Observations

Time (PDT) Temp. Windchill Dew Point Humidity Pressure Visibility Wind Dir Wind Speed Gust Speed Precip Events Conditions
12:52 AM 41.0 °F 38.0 °F 33.1 °F 73% 30.07 in 10.0 mi NE 4.6 mph - N/A   Clear
1:52 AM 42.1 °F 39.2 °F 30.9 °F 65% 30.08 in 10.0 mi NE 4.6 mph - N/A   Clear
2:52 AM 42.1 °F 38.4 °F 28.9 °F 60% 30.09 in 10.0 mi NE 5.8 mph - N/A   Clear
3:52 AM 42.1 °F 37.7 °F 28.0 °F 58% 30.08 in 10.0 mi Variable 6.9 mph - N/A   Clear
4:52 AM 42.1 °F 39.2 °F 26.1 °F 53% 30.07 in 10.0 mi ENE 4.6 mph - N/A   Clear
5:52 AM 44.1 °F 40.8 °F 25.0 °F 47% 30.06 in 10.0 mi Variable 5.8 mph - N/A   Clear
6:52 AM 43.0 °F 40.3 °F 26.1 °F 51% 30.09 in 10.0 mi Variable 4.6 mph - N/A   Clear
7:52 AM 44.1 °F 41.5 °F 25.0 °F 47% 30.10 in 10.0 mi NE 4.6 mph - N/A   Clear
8:52 AM 48.0 °F - 27.0 °F 44% 30.09 in 10.0 mi Variable 3.5 mph - N/A   Clear
9:52 AM 53.1 °F - 30.0 °F 41% 30.10 in 10.0 mi Variable 3.5 mph - N/A   Clear
10:52 AM 55.0 °F - 30.9 °F 40% 30.11 in 10.0 mi Variable 3.5 mph - N/A   Clear
11:52 AM 55.0 °F - 34.0 °F 45% 30.11 in 10.0 mi WNW 5.8 mph - N/A   Clear
12:52 PM 57.0 °F - 36.0 °F 45% 30.12 in 10.0 mi Variable 4.6 mph - N/A   Clear
1:52 PM 60.1 °F - 37.0 °F 42% 30.08 in 10.0 mi Variable 3.5 mph - N/A   Clear
2:52 PM 60.1 °F - 37.9 °F 44% 30.08 in 10.0 mi West 5.8 mph - N/A   Clear
3:52 PM 59.0 °F - 39.0 °F 48% 30.09 in 10.0 mi Variable 5.8 mph - N/A   Clear
4:52 PM 57.9 °F - 39.0 °F 49% 30.10 in 10.0 mi West 5.8 mph - N/A   Clear
5:52 PM 55.0 °F - 39.9 °F 57% 30.10 in 10.0 mi WNW 4.6 mph - N/A   Clear
6:52 PM 50.0 °F - 39.9 °F 68% 30.12 in 10.0 mi NNE 3.5 mph - N/A   Clear
7:52 PM 52.0 °F - 39.9 °F 63% 30.13 in 10.0 mi NNE 4.6 mph - N/A   Clear
8:52 PM 52.0 °F - 39.0 °F 61% 30.13 in 10.0 mi NNE 4.6 mph - N/A   Clear
9:52 PM 53.1 °F - 39.9 °F 61% 30.12 in 10.0 mi North 4.6 mph - N/A   Clear
10:52 PM 53.1 °F - 39.9 °F 61% 30.12 in 10.0 mi NNE 3.5 mph - N/A   Clear
11:52 PM 53.1 °F - 39.0 °F 59% 30.12 in 10.0 mi NE 4.6 mph - N/A   Clear